Location: Azul
(36.7830°S, 59.8500°W)
Time: 10:28:31
(UTC-03:00)

ISS - Pass Details

Date: 27 March 2020
Orbit: 416 x 423 km, 51.6° (Epoch: 02 April)

Event Time Altitude Azimuth Distance (km) Brightness Sun altitude
Exits shadow 06:30:36 11° 256° (WSW) 1,494 -1.6 -8.5°
Maximum altitude 06:33:05 20° 208° (SSW) 1,074 -1.9 -8.0°
Drops below altitude 10° 06:35:42 10° 159° (SSE) 1,540 -0.6 -7.5°
Sets 06:38:14 0° 141° (SE) 2,411 0.8 -7.0°
